FW8685 Weather Reports


Display with metric or nautical units.
time (UTC)temp
F
wind
direction
speed
MPH
gust
MPH
rain 1hr
in
rain 24hr
in
rain mn
in
humidity
%
barometer
mb
20260901222525 100 106 9.0 17.0 0.00 0.00 0.00 29 1011.0
20260901222025 100 139 9.0 18.0 0.00 0.00 0.00 28 1011.0
20260901221555 100 130 8.0 20.0 0.00 0.00 0.00 27 1011.0
20260901221024 101 142 12.0 20.0 0.00 0.00 0.00 27 1011.2
20260901220524 101 121 11.0 21.0 0.00 0.00 0.00 27 1011.1
20260901220043 101 115 9.0 22.0 0.00 0.00 0.00 28 1011.1
20260901215525 101 111 14.0 22.0 0.00 0.00 0.00 28 1011.1
20260901215026 102 123 8.0 17.0 0.00 0.00 0.00 27 1011.1
20260901214557 102 115 10.0 15.0 0.00 0.00 0.00 27 1011.2
20260901214024 103 121 8.0 21.0 0.00 0.00 0.00 27 1011.2
20260901213524 102 113 11.0 21.0 0.00 0.00 0.00 27 1011.2
20260901213047 102 134 11.0 22.0 0.00 0.00 0.00 27 1011.3
20260901212524 102 141 9.0 22.0 0.00 0.00 0.00 27 1011.2
20260901212028 103 132 8.0 22.0 0.00 0.00 0.00 26 1011.3
20260901211543 102 128 11.0 23.0 0.00 0.00 0.00 26 1011.4
20260901211024 102 99 12.0 23.0 0.00 0.00 0.00 27 1011.5
20260901210525 102 142 13.0 23.0 0.00 0.00 0.00 26 1011.5
20260901205525 101 132 7.0 16.0 0.00 0.00 0.00 27 1011.6
20260901205026 101 117 9.0 24.0 0.00 0.00 0.00 28 1011.8
20260901204544 102 154 12.0 24.0 0.00 0.00 0.00 26 1011.8
20260901204030 102 132 8.0 21.0 0.00 0.00 0.00 27 1011.8
20260901203524 102 142 13.0 21.0 0.00 0.00 0.00 27 1012.0
20260901203045 102 133 10.0 20.0 0.00 0.00 0.00 26 1012.0
20260901202524 102 138 11.0 19.0 0.00 0.00 0.00 27 1011.9
20260901202026 102 114 9.0 20.0 0.00 0.00 0.00 27 1012.1
20260901201546 102 109 12.0 20.0 0.00 0.00 0.00 27 1012.2
20260901201024 102 122 12.0 21.0 0.00 0.00 0.00 27 1012.3
20260901200524 102 128 12.0 24.0 0.00 0.00 0.00 26 1012.2
20260901200044 102 155 11.0 24.0 0.00 0.00 0.00 28 1012.3
20260901195527 102 157 11.0 22.0 0.00 0.00 0.00 27 1012.3
20260901195025 103 150 11.0 24.0 0.00 0.00 0.00 26 1012.4
20260901194552 103 137 14.0 24.0 0.00 0.00 0.00 27 1012.4
20260901194023 103 123 11.0 20.0 0.00 0.00 0.00 28 1012.4
20260901193524 102 166 8.0 23.0 0.00 0.00 0.00 27 1012.6
20260901193046 103 162 13.0 23.0 0.00 0.00 0.00 27 1012.8
20260901192524 102 165 9.0 23.0 0.00 0.00 0.00 27 1012.7
20260901192025 100 105 5.0 27.0 0.00 0.00 0.00 29 1012.7
20260901191550 102 161 12.0 27.0 0.00 0.00 0.00 28 1012.8
20260901191025 103 126 15.0 27.0 0.00 0.00 0.00 27 1012.9
20260901190527 103 173 11.0 23.0 0.00 0.00 0.00 27 1012.9
20260901190051 101 132 8.0 23.0 0.00 0.00 0.00 28 1012.9
20260901185525 103 147 9.0 20.0 0.00 0.00 0.00 28 1012.9
20260901185025 102 140 13.0 22.0 0.00 0.00 0.00 28 1012.9
20260901184550 102 134 11.0 24.0 0.00 0.00 0.00 29 1013.0
20260901184024 103 153 13.0 24.0 0.00 0.00 0.00 27 1013.0
20260901183525 101 126 11.0 21.0 0.00 0.00 0.00 29 1013.0
20260901183102 100 138 11.0 20.0 0.00 0.00 0.00 30 1013.2
20260901182524 99 161 10.0 20.0 0.00 0.00 0.00 30 1013.3
20260901182026 100 138 14.0 20.0 0.00 0.00 0.00 30 1013.3
20260901181543 99 125 11.0 19.0 0.00 0.00 0.00 32 1013.4
20260901181023 98 129 10.0 18.0 0.00 0.00 0.00 32 1013.5
20260901180528 98 142 9.0 19.0 0.00 0.00 0.00 31 1013.5
20260901180043 99 150 9.0 19.0 0.00 0.00 0.00 30 1013.6
20260901175528 98 142 9.0 21.0 0.00 0.00 0.00 31 1013.5
20260901175025 98 148 12.0 21.0 0.00 0.00 0.00 31 1013.6
20260901174542 99 134 11.0 20.0 0.00 0.00 0.00 32 1013.6
20260901174024 99 132 8.0 18.0 0.00 0.00 0.00 33 1013.7
20260901173529 99 148 12.0 18.0 0.00 0.00 0.00 32 1013.8
20260901173045 99 142 9.0 23.0 0.00 0.00 0.00 33 1013.8
20260901172524 99 119 12.0 23.0 0.00 0.00 0.00 33 1013.8
20260901172024 99 132 12.0 17.0 0.00 0.00 0.00 34 1013.9
20260901171542 99 156 9.0 25.0 0.00 0.00 0.00 34 1013.9
20260901171024 98 97 10.0 25.0 0.00 0.00 0.00 34 1013.9
20260901170524 98 149 13.0 25.0 0.00 0.00 0.00 35 1013.9
20260901170049 98 153 10.0 24.0 0.00 0.00 0.00 36 1014.0
20260901165525 97 146 10.0 22.0 0.00 0.00 0.00 37 1014.0
20260901165025 97 135 15.0 23.0 0.00 0.00 0.00 36 1014.1
20260901164547 97 155 13.0 27.0 0.00 0.00 0.00 37 1014.1
20260901164026 97 148 12.0 27.0 0.00 0.00 0.00 36 1014.2
20260901163524 97 112 12.0 21.0 0.00 0.00 0.00 36 1014.2
20260901163053 97 140 10.0 25.0 0.00 0.00 0.00 36 1014.2
20260901162523 97 160 11.0 25.0 0.00 0.00 0.00 37 1014.3
20260901162027 96 168 12.0 25.0 0.00 0.00 0.00 36 1014.4
20260901161553 96 161 12.0 21.0 0.00 0.00 0.00 37 1014.3
20260901161023 96 142 12.0 21.0 0.00 0.00 0.00 37 1014.3
20260901160530 96 148 13.0 21.0 0.00 0.00 0.00 37 1014.2
20260901160044 96 154 10.0 21.0 0.00 0.00 0.00 37 1014.3
20260901155523 96 109 9.0 21.0 0.00 0.00 0.00 39 1014.2
20260901155027 95 136 12.0 23.0 0.00 0.00 0.00 39 1014.3
20260901154610 95 146 13.0 23.0 0.00 0.00 0.00 39 1014.3
20260901154025 94 167 10.0 21.0 0.00 0.00 0.00 39 1014.3
20260901153526 94 135 9.0 19.0 0.00 0.00 0.00 40 1014.3
20260901153049 93 130 10.0 19.0 0.00 0.00 0.00 41 1014.3
20260901152525 93 159 10.0 19.0 0.00 0.00 0.00 41 1014.3
20260901152025 93 151 8.0 15.0 0.00 0.00 0.00 42 1014.4
20260901151544 92 122 9.0 18.0 0.00 0.00 0.00 42 1014.4
20260901151025 92 141 9.0 18.0 0.00 0.00 0.00 43 1014.4
20260901150524 92 148 8.0 18.0 0.00 0.00 0.00 43 1014.3
20260901150054 91 138 7.0 16.0 0.00 0.00 0.00 43 1014.4
20260901145526 90 167 8.0 16.0 0.00 0.00 0.00 44 1014.4
20260901145027 90 134 10.0 16.0 0.00 0.00 0.00 45 1014.4
20260901144547 89 133 6.0 15.0 0.00 0.00 0.00 46 1014.4
20260901144025 88 135 7.0 14.0 0.00 0.00 0.00 47 1014.4
20260901143526 88 157 8.0 14.0 0.00 0.00 0.00 48 1014.4
20260901143046 87 118 8.0 14.0 0.00 0.00 0.00 49 1014.5
20260901142524 86 121 7.0 12.0 0.00 0.00 0.00 51 1014.6
20260901142025 85 119 5.0 12.0 0.00 0.00 0.00 52 1014.6
20260901141556 84 142 5.0 10.0 0.00 0.00 0.00 54 1014.6
20260901141026 83 134 6.0 10.0 0.00 0.00 0.00 56 1014.6
20260901140526 82 150 6.0 10.0 0.00 0.00 0.00 56 1014.5
20260901140056 81 132 3.0 9.0 0.00 0.00 0.00 59 1014.6
20260901135523 80 121 3.0 8.0 0.00 0.00 0.00 60 1014.6
20260901135026 79 134 3.0 8.0 0.00 0.00 0.00 62 1014.6
20260901134546 78 117 3.0 8.0 0.00 0.00 0.00 63 1014.6
20260901134023 77 114 2.0 8.0 0.00 0.00 0.00 65 1014.6
20260901133525 76 118 3.0 8.0 0.00 0.00 0.00 67 1014.6
20260901133045 75 125 4.0 8.0 0.00 0.00 0.00 68 1014.6
20260901132524 74 121 3.0 8.0 0.00 0.00 0.00 69 1014.6
20260901132025 73 114 3.0 7.0 0.00 0.00 0.00 72 1014.6
20260901131543 73 134 3.0 6.0 0.00 0.00 0.00 73 1014.5
20260901131024 72 108 2.0 4.0 0.00 0.00 0.00 74 1014.6
20260901130530 71 126 2.0 4.0 0.00 0.00 0.00 76 1014.6
20260901130043 71 111 2.0 6.0 0.00 0.00 0.00 77 1014.5
20260901125520 70 115 2.0 6.0 0.00 0.00 0.00 78 1014.5
20260901125025 69 116 3.0 6.0 0.00 0.00 0.00 78 1014.4
20260901124548 69 115 4.0 6.0 0.00 0.00 0.00 79 1014.4
20260901124024 69 111 2.0 6.0 0.00 0.00 0.00 79 1014.2
20260901123521 69 104 3.0 6.0 0.00 0.00 0.00 79 1014.3
20260901123046 68 108 3.0 4.0 0.00 0.00 0.00 78 1014.2
20260901122529 68 111 2.0 4.0 0.00 0.00 0.00 78 1014.1
20260901122028 68 118 2.0 3.0 0.00 0.00 0.00 78 1014.1
20260901121542 68 111 2.0 3.0 0.00 0.00 0.00 78 1014.0
20260901121025 68 108 2.0 3.0 0.00 0.00 0.00 78 1013.9
20260901120525 68 107 2.0 3.0 0.00 0.00 0.00 78 1013.8
20260901120100 68 107 2.0 3.0 0.00 0.00 0.00 78 1013.8
20260901115526 68 109 2.0 3.0 0.00 0.00 0.00 78 1013.8
20260901115028 68 105 2.0 4.0 0.00 0.00 0.00 78 1013.8
20260901114545 68 108 2.0 4.0 0.00 0.00 0.00 78 1013.8
20260901114026 68 108 2.0 4.0 0.00 0.00 0.00 78 1013.9
20260901113526 68 111 2.0 3.0 0.00 0.00 0.00 78 1013.8
20260901113054 68 112 1.0 3.0 0.00 0.00 0.00 78 1013.8
20260901112522 68 112 2.0 3.0 0.00 0.00 0.00 77 1013.8
20260901112024 69 119 2.0 3.0 0.00 0.00 0.00 77 1013.7
20260901111547 69 116 1.0 2.0 0.00 0.00 0.00 76 1013.7
20260901111024 69 116 1.0 2.0 0.00 0.00 0.00 76 1013.7
20260901110525 69 116 1.0 3.0 0.00 0.00 0.00 76 1013.7
20260901110050 69 116 1.0 3.0 0.00 0.00 0.00 76 1013.6
20260901105524 69 116 2.0 3.0 0.00 0.00 0.00 75 1013.5
20260901105024 69 116 2.0 3.0 0.00 0.00 0.00 75 1013.6
20260901104544 70 116 2.0 3.0 0.00 0.00 0.00 75 1013.6
20260901104025 70 116 2.0 3.0 0.00 0.00 0.00 75 1013.5
20260901103525 70 117 2.0 4.0 0.00 0.00 0.00 74 1013.5
20260901103054 70 111 2.0 4.0 0.00 0.00 0.00 74 1013.4
20260901102525 70 116 2.0 4.0 0.00 0.00 0.00 74 1013.4
20260901102024 70 107 2.0 6.0 0.00 0.00 0.00 74 1013.3
20260901101548 70 109 2.0 6.0 0.00 0.00 0.00 74 1013.3
20260901101122 70 112 3.0 6.0 0.00 0.00 0.00 74 1013.3
20260901100527 71 112 3.0 6.0 0.00 0.00 0.00 74 1013.3
20260901100045 71 107 3.0 4.0 0.00 0.00 0.00 73 1013.2
20260901095524 71 109 3.0 4.0 0.00 0.00 0.00 73 1013.1
20260901095024 71 115 2.0 4.0 0.00 0.00 0.00 72 1013.1
20260901094547 71 115 2.0 4.0 0.00 0.00 0.00 73 1013.1
20260901094026 71 107 2.0 4.0 0.00 0.00 0.00 73 1013.1
20260901093529 71 105 2.0 4.0 0.00 0.00 0.00 73 1013.0
20260901093052 71 101 2.0 4.0 0.00 0.00 0.00 73 1013.0
20260901092525 71 128 2.0 3.0 0.00 0.00 0.00 73 1012.9
20260901092024 71 128 1.0 3.0 0.00 0.00 0.00 73 1012.9
20260901091554 71 128 1.0 3.0 0.00 0.00 0.00 73 1013.0
20260901091023 71 128 2.0 3.0 0.00 0.00 0.00 72 1012.9
20260901090527 71 138 1.0 3.0 0.00 0.00 0.00 71 1012.9
20260901090057 72 138 1.0 3.0 0.00 0.00 0.00 71 1012.9
20260901085524 72 138 1.0 4.0 0.00 0.00 0.00 71 1012.7
20260901085024 72 139 1.0 4.0 0.00 0.00 0.00 71 1012.9
20260901084541 72 142 2.0 4.0 0.00 0.00 0.00 71 1012.7
20260901084026 72 119 2.0 4.0 0.00 0.00 0.00 70 1012.6
20260901083529 72 134 2.0 6.0 0.00 0.00 0.00 70 1012.5
20260901083042 72 117 2.0 6.0 0.00 0.00 0.00 70 1012.5
20260901082528 72 107 3.0 6.0 0.00 0.00 0.00 70 1012.5
20260901082024 72 111 3.0 6.0 0.00 0.00 0.00 70 1012.4
20260901081545 72 109 3.0 6.0 0.00 0.00 0.00 70 1012.4
20260901081028 72 117 3.0 6.0 0.00 0.00 0.00 70 1012.4
20260901080525 73 109 2.0 4.0 0.00 0.00 0.00 70 1012.4
20260901080057 73 112 2.0 4.0 0.00 0.00 0.00 69 1012.4
20260901075525 73 114 2.0 4.0 0.00 0.00 0.00 68 1012.5
20260901075024 73 119 1.0 4.0 0.00 0.00 0.00 68 1012.3
20260901074542 73 119 2.0 4.0 0.00 0.00 0.00 68 1012.5
20260901074023 73 111 2.0 4.0 0.00 0.00 0.00 68 1012.5
20260901073524 73 108 2.0 4.0 0.00 0.00 0.00 68 1012.4
20260901073043 74 111 2.0 4.0 0.00 0.00 0.00 67 1012.6
20260901072524 74 119 2.0 6.0 0.00 0.00 0.00 67 1012.6
20260901072024 74 106 3.0 6.0 0.00 0.00 0.00 67 1012.6
20260901071545 74 110 3.0 6.0 0.00 0.00 0.00 67 1012.7
20260901071024 74 109 3.0 6.0 0.00 0.00 0.00 67 1012.6
20260901070527 74 107 4.0 6.0 0.00 0.00 0.00 67 1012.4
20260901070048 74 106 3.0 6.0 0.00 0.00 0.00 66 1012.5
20260901065525 74 113 3.0 6.0 0.00 0.00 0.00 66 1012.6
20260901065024 74 109 4.0 6.0 0.00 0.00 0.00 66 1012.7
20260901064551 75 105 3.0 6.0 0.00 0.00 0.00 65 1012.7
20260901064025 75 107 2.0 4.0 0.00 0.00 0.00 64 1012.8
20260901063524 75 104 2.0 4.0 0.00 0.00 0.00 65 1012.7
20260901063053 75 109 2.0 4.0 0.00 0.00 0.00 64 1012.7
20260901062524 75 119 2.0 4.0 0.00 0.00 0.00 63 1012.8
20260901062025 76 118 2.0 4.0 0.00 0.00 0.00 62 1012.7
20260901061545 76 111 2.0 4.0 0.00 0.00 0.00 62 1012.8
20260901061024 76 113 2.0 4.0 0.00 0.00 0.00 62 1012.8
20260901060527 76 114 3.0 4.0 0.00 0.00 0.00 61 1012.8
20260901060044 77 122 2.0 4.0 0.00 0.00 0.00 60 1012.7
20260901055522 77 119 3.0 6.0 0.00 0.00 0.00 60 1012.6
20260901055025 77 112 3.0 6.0 0.00 0.00 0.00 60 1012.6
20260901054545 77 120 3.0 6.0 0.00 0.00 0.00 60 1012.6
20260901054025 77 113 3.0 6.0 0.00 0.00 0.00 59 1012.4
20260901053525 78 111 3.0 6.0 0.00 0.00 0.00 59 1012.5
20260901053050 78 109 3.0 6.0 0.00 0.00 0.00 58 1012.5
20260901052527 78 108 3.0 6.0 0.00 0.00 0.00 58 1012.7
20260901052027 78 112 3.0 6.0 0.00 0.00 0.00 57 1012.6
20260901051541 78 119 3.0 6.0 0.00 0.00 0.00 57 1012.6
20260901051024 79 109 4.0 8.0 0.00 0.00 0.00 57 1012.4
20260901050529 79 98 4.0 8.0 0.00 0.00 0.00 56 1012.5
20260901050046 79 103 3.0 7.0 0.00 0.00 0.00 56 1012.5
20260901045524 79 101 4.0 7.0 0.00 0.00 0.00 56 1012.6
20260901045026 80 107 5.0 7.0 0.00 0.00 0.00 55 1012.7
20260901044546 80 104 5.0 7.0 0.00 0.00 0.00 55 1012.7
20260901044026 80 93 5.0 7.0 0.00 0.00 0.00 54 1012.7
20260901043524 80 108 4.0 7.0 0.00 0.00 0.00 54 1012.7
20260901043044 81 109 4.0 9.0 0.00 0.00 0.00 53 1012.6
20260901042525 81 106 4.0 9.0 0.00 0.00 0.00 53 1012.4
20260901042026 81 107 5.0 9.0 0.00 0.00 0.00 53 1012.4
20260901041549 81 104 6.0 10.0 0.00 0.00 0.00 53 1012.2
20260901041024 81 107 6.0 10.0 0.00 0.00 0.00 52 1012.3
20260901040525 82 111 6.0 9.0 0.00 0.00 0.00 52 1012.2
20260901040048 82 107 6.0 9.0 0.00 0.00 0.00 52 1012.2
20260901035525 82 107 6.0 10.0 0.00 0.00 0.00 51 1012.2
20260901035023 82 360 6.0 10.0 0.00 0.00 0.00 51 1012.0
20260901034547 83 117 7.0 10.0 0.00 0.00 0.00 50 1012.0
20260901034025 83 107 7.0 10.0 0.00 0.00 0.00 50 1011.9
20260901033525 83 104 6.0 11.0 0.00 0.00 0.00 50 1011.9
20260901033048 83 103 7.0 11.0 0.00 0.00 0.00 49 1011.9
20260901032528 83 104 6.0 11.0 0.00 0.00 0.00 49 1011.8
20260901032030 84 90 6.0 11.0 0.00 0.00 0.00 49 1011.8
20260901031542 84 101 6.0 11.0 0.00 0.00 0.00 49 1011.9
20260901031022 84 95 6.0 10.0 0.00 0.00 0.00 48 1011.8
20260901030525 84 98 6.0 10.0 0.00 0.00 0.00 48 1011.8
20260901030048 85 95 7.0 10.0 0.00 0.00 0.00 48 1011.7
20260901025526 85 97 6.0 9.0 0.00 0.00 0.00 48 1011.8
20260901025026 85 101 6.0 9.0 0.00 0.00 0.00 47 1011.8
20260901024546 85 107 6.0 9.0 0.00 0.00 0.00 47 1011.6
20260901024025 86 86 5.0 9.0 0.00 0.00 0.00 47 1011.5
20260901023524 86 98 6.0 9.0 0.00 0.00 0.00 46 1011.4
20260901023044 86 96 6.0 9.0 0.00 0.00 0.00 46 1011.3
20260901022524 86 111 6.0 9.0 0.00 0.00 0.00 46 1011.3
20260901022029 87 96 6.0 9.0 0.00 0.00 0.00 46 1011.2
20260901021550 87 93 5.0 10.0 0.00 0.00 0.00 45 1011.2
20260901021025 87 101 7.0 10.0 0.00 0.00 0.00 45 1011.0
20260901020525 87 95 6.0 10.0 0.00 0.00 0.00 45 1011.0
20260901020051 88 92 6.0 10.0 0.00 0.00 0.00 44 1010.9
20260901015525 88 94 5.0 9.0 0.00 0.00 0.00 44 1010.8
20260901015025 88 90 5.0 9.0 0.00 0.00 0.00 44 1010.9
20260901014547 89 105 6.0 9.0 0.00 0.00 0.00 43 1010.8
20260901014024 89 92 6.0 9.0 0.00 0.00 0.00 43 1010.8
20260901013525 90 100 5.0 9.0 0.00 0.00 0.00 42 1010.6
20260901013100 90 96 5.0 9.0 0.00 0.00 0.00 42 1010.6
20260901012525 90 107 6.0 9.0 0.00 0.00 0.00 41 1010.6
20260901012025 91 105 6.0 9.0 0.00 0.00 0.00 40 1010.6
20260901011545 91 93 6.0 8.0 0.00 0.00 0.00 40 1010.6
20260901011025 92 103 5.0 8.0 0.00 0.00 0.00 39 1010.6
20260901010526 92 103 5.0 9.0 0.00 0.00 0.00 39 1010.5
20260901010046 93 101 6.0 9.0 0.00 0.00 0.00 38 1010.4
20260901005526 93 95 6.0 10.0 0.00 0.00 0.00 38 1010.4
20260901005025 93 103 6.0 10.0 0.00 0.00 0.00 37 1010.4
20260901004549 94 100 5.0 9.0 0.00 0.00 0.00 37 1010.4
20260901004024 95 102 6.0 10.0 0.00 0.00 0.00 37 1010.3
20260901003525 95 98 6.0 10.0 0.00 0.00 0.00 36 1010.3
20260901003044 96 98 7.0 10.0 0.00 0.00 0.00 35 1010.2
20260901002525 96 103 6.0 11.0 0.00 0.00 0.00 35 1010.3
20260901002024 97 103 7.0 11.0 0.00 0.00 0.00 34 1010.3
20260901001546 97 99 7.0 11.0 0.00 0.00 0.00 33 1010.2
20260901001026 98 103 7.0 12.0 0.00 0.00 0.00 33 1010.2
20260901000528 98 113 8.0 12.0 0.00 0.00 0.00 32 1010.2
20260901000045 98 96 8.0 13.0 0.00 0.00 0.00 32 1010.3
20260831235525 98 104 9.0 13.0 0.00 0.00 0.00 31 1010.3
20260831235028 99 94 7.0 12.0 0.00 0.00 0.00 31 1010.3
20260831234550 99 104 8.0 17.0 0.00 0.00 0.00 30 1010.3
20260831234024 99 109 10.0 17.0 0.00 0.00 0.00 30 1010.2
20260831233526 99 102 10.0 15.0 0.00 0.00 0.00 30 1010.4
20260831233053 99 100 9.0 18.0 0.00 0.00 0.00 30 1010.3
20260831232527 100 93 11.0 18.0 0.00 0.00 0.00 30 1010.3
20260831232025 100 94 10.0 18.0 0.00 0.00 0.00 30 1010.3
20260831231544 100 98 8.0 17.0 0.00 0.00 0.00 30 1010.3
20260831231030 101 103 9.0 17.0 0.00 0.00 0.00 30 1010.4
20260831230525 101 113 11.0 18.0 0.00 0.00 0.00 30 1010.3
20260831230045 101 113 13.0 19.0 0.00 0.00 0.00 30 1010.4
20260831225525 101 113 11.0 19.0 0.00 0.00 0.00 30 1010.4
20260831225030 101 124 13.0 20.0 0.00 0.00 0.00 30 1010.5
20260831224546 101 110 13.0 20.0 0.00 0.00 0.00 30 1010.4
20260831224028 101 97 13.0 20.0 0.00 0.00 0.00 30 1010.4
20260831223526 101 112 14.0 20.0 0.00 0.00 0.00 29 1010.5
20260831223053 102 113 12.0 21.0 0.00 0.00 0.00 29 1010.4